www.pogodaiklimat.ru

Погода и климат >> Архив погоды >> Мексика >> Кампече


ПОГОДА в Кампече

  • Прогноз погоды в Кампече
  • Монитор погоды в Кампече

АРХИВ ПОГОДЫ в Кампече

Время (UTC), дата Ветер
(напр.,м/с)
 
Видим.   Явления Облачность Т
(С)
Тd
(С)
f
(%)
Тe
(С)
Тes
(С)
Комфортность P
(гПа)
Po
(гПа)
Тmin
(С)
Tmax
(С)
R
(мм)
R24
(мм)
S
(см)
21 8.02 СЗ 4 10 км ясно +29.6 +23.9 71 +41 +45 опасность
перегрева
1016.8 1016.2
00 9.02 С 5 10 км ясно +26.8 +23.5 82 +36 +36 очень
душно
1016.4 1015.8 +20.4 +32.4
03 9.02 С 4 6000 м ясно +25.2 +21.2 79 +32 +32 очень
душно
1019.1 1018.5
06 9.02 СВ 3 6000 м 10/10 540 м
[Sc]
+23.8 +19.4 76 +29 +29 душно 1020.3 1019.7 +20.4 +32.4
12 9.02 СВ 1 6000 м ясно +21.2 +19.1 88 +26 +26 душно 1019.9 1019.4 +21.0 +32.4
15 9.02 СВ 1 10 км ясно +24.8 +19.2 71 +30 +38 душно 1021.4 1020.8
18 9.02 СВ 3 10 км 1/1 1500 м
[St]
+30.8 +18.6 48 +36 +47 очень
душно
1019.7 1019.1 +20.5 +31.7
21 9.02 СЗ 6 10 км 4/4 960 м
[Cu med, cong]
+27.4 +24.4 84 +39 +40 очень
душно
1017.6 1017.0
00 10.02 СЗ 3 10 км ясно +26.0 +23.8 88 +36 +36 очень
душно
1017.4 1016.8 +20.5 +31.7
06 10.02 В 1 6000 м {морось} 1/0
[Ac und]
+23.6 +20.7 84 +29 +29 душно 1019.3 1018.0 +20.5 +31.7 0.7
09 10.02 В 1 6000 м ясно +21.2 +19.4 89 +26 +26 душно 1018.0 1017.4
12 10.02 СВ 1 10 км ясно +19.4 +18.2 93 +23 +23 комфорт 1018.6 1018.1 +19.0 +31.7
15 10.02 СВ 1 10 км ясно +22.4 +19.8 85 +28 +37 душно 1019.5 1019.0
18 10.02 З 2 10 км 3/3 660 м
[Cu med, cong]
+27.2 +22.2 74 +35 +46 очень
душно
1018.1 1017.5 +19.0 +29.0
21 10.02 З 3 10 км в посл. час морось 5/3 1000 м
[Cu med, cong Ac cuf]
+26.7 +22.8 79 +35 +39 очень
душно
1015.7 1015.1 0.7
00 11.02 СЗ 2 10 км {морось} 4/4 900 м
[Sc diur, vesp]
+25.0 +23.3 90 +33 +33 очень
душно
1016.0 1015.5 +19.0 +30.3 0.7
03 11.02 С 2 6000 м ясно +24.8 +22.3 86 +32 +32 очень
душно
1016.4 1015.8
06 11.02 штиль 0 6000 м 6/0
[Ac und]
+22.3 +21.4 95 +29 +29 очень
душно
1016.3 1015.7 +19.0 +30.3
12 11.02 штиль 0 6000 м ясно +18.8 +18.5 98 +20 +20 1015.1 1014.5 +18.4 +30.3
15 11.02 В 2 10 км 3/3 180 м
[St]
+22.6 +21.2 92 +30 +35 очень
душно
1015.9 1015.3
18 11.02 В 1 10 км 5/5 800 м
[Cu med, cong]
+30.1 +22.5 64 +39 +49 очень
душно
1013.9 1013.3 +18.2 +30.1
21 11.02 З 4 10 км 6/6 600 м
[]
+29.6 +23.6 70 +40 +42 очень
душно
1010.6 1010.1
00 12.02 СЗ 2 10 км в посл. час морось 5/5 300 м
[Cu med, cong]
+26.5 +23.3 83 +36 +36 очень
душно
1010.7 1010.1 +18.2 +34.0 0.0
03 12.02 Ю 2 6000 м ясно +24.2 +22.8 92 +32 +32 очень
душно
1012.8 1012.3
06 12.02 ЮВ 1 6000 м ясно +21.6 +20.1 91 +27 +27 душно 1013.0 1012.4 +18.2 +34.0
12 12.02 ЮВ 1 6000 м ясно +20.0 +19.7 98 +25 +25 комфорт 1012.2 1011.6 +19.8 +34.0
15 12.02 ЮВ 2 10 км ясно +25.4 +22.3 83 +33 +40 очень
душно
1014.1 1013.5
18 12.02 ЮВ 1 10 км 3/3 1000 м
[Cu med, cong]
+32.6 +23.6 59 +44 +56 опасность
перегрева
1012.8 1012.3 +19.8 +32.6
21 12.02 З 4 10 км 4/4 600 м
[Cu med, cong]
+29.2 +24.6 76 +41 +44 опасность
перегрева
1011.8 1011.2
00 13.02 С 4 10 км 8/5 270 м
[Frnb Ac und]
+26.6 +24.4 88 +37 +37 очень
душно
1012.8 1012.2 +19.8 +34.0
03 13.02 С 4 6000 м 4/4 300 м
[St]
+25.8 +23.0 85 +34 +34 очень
душно
1014.9 1014.3
06 13.02 С 1 6000 м 4/0
[Ac trans]
+24.1 +21.8 87 +31 +31 очень
душно
1016.1 1015.5 +19.8 +34.0
09 13.02 С 3 6000 м 9/0
[As op]
+24.2 +21.6 85 +31 +31 очень
душно
1015.8 1015.2
12 13.02 С 4 6000 м 6/6 300 м
[St]
+23.5 +21.2 87 +30 +30 очень
душно
1016.8 1016.3 +23.4 +34.0
15 13.02 С 3 10 км 1/1 540 м
[Cu hum]
+25.2 +25.2 100 +36 +42 очень
душно
1018.8 1018.3
18 13.02 С 6 6000 м слаб. морось 9/8 360 м
[Sc diur, vesp As op]
+25.4 +22.6 85 +33 +34 очень
душно
1019.2 1018.6 +23.4 +26.0 0.0
21 13.02 С 5 10 км в посл. час морось 8/3 480 м
[Sc Ac trans]
+25.6 +21.9 80 +33 +35 очень
душно
1017.0 1016.4 0.0
00 14.02 С 2 10 км {морось} 8/8 570 м
[Sc]
+24.6 +20.3 77 +30 +30 очень
душно
1017.2 1016.2 +23.4 +26.0 0.0
03 14.02 С 2 6000 м ясно +22.4 +19.8 85 +28 +28 душно 1018.5 1017.9
06 14.02 СВ 1 6000 м ясно +20.0 +18.8 93 +24 +24 комфорт 1018.3 1017.7 +19.8 +26.0
09 14.02 СВ 1 6000 м ясно +19.0 +18.1 95 +22 +22 комфорт 1017.4 1016.8
15 14.02 В 2 10 км ясно +23.0 +19.9 83 +30 +37 очень
душно
1018.5 1017.9
18 14.02 Ю 1 10 км ясно +29.6 +23.0 68 +40 +58 опасность
солнечного
удара
1016.7 1016.1 +16.3 +29.6
21 14.02 З 2 10 км ясно +27.9 +21.9 70 +36 +44 очень
душно
1012.4 1011.9
00 15.02 СЗ 2 10 км ясно +25.6 +21.0 76 +32 +32 очень
душно
1012.8 1012.2 +16.3 +30.7
03 15.02 С 3 6000 м ясно +23.7 +19.6 78 +29 +29 душно 1015.0 1014.4
06 15.02 С 2 6000 м ясно +20.7 +17.7 83 +25 +25 комфорт 1014.4 1013.8 +16.3 +30.7
09 15.02 ЮВ 1 6000 м ясно +18.0 +16.4 90 +19 +19 1013.0 1012.4
12 15.02 ЮВ 1 6000 м ясно +16.5 +15.9 96 +17 +17 1013.0 1012.4 +16.4 +30.7
15 15.02 ЮВ 2 10 км ясно +23.3 +20.4 84 +31 +38 очень
душно
1014.3 1013.7

 

Местоположение метеостанции Кампече (Мексика): широта 19.85 долгота -90.55 высота над уровнем моря 5 м.

В архиве по умолчанию представлена погода в Кампече за последнюю неделю. Архивные данные за месяц целиком и за предыдущие месяцы, начиная с января 2011 года, Вы можете получить, выбрав интересующий диапазон дат из раскрывающегося списка и нажав кнопку "Ввод!".


*Определитесь, кто Вы:
робот инопланетянин человек

Внимание! Время в таблицах - всемирное. Для получения местного времени необходимо прибавить поправку, которая равна -6 ч.

Смотрите также архив погоды в соседних городах и на ближайших метеорологических станциях:

Погода в Мериде 2 (Мексика) (156 км)
Погода в Мериде (Мексика) (157 км)
Погода в Прогресо (Мексика) (187 км)
Погода в Вальядолиде (Мексика) (262 км)
Погода в Фелипе-Каррильо-Пуэрто (Мексика) (278 км)
Погода в Четумале (Мексика) (281 км)
Погода в Вильяэрмосе (Мексика) (326 км)
Погода во Флоресе (Гватемала) (333 км)
Погода в Белизе (Белиз) (350 км)
Погода в Сан-Кристобаль-де-лас-Касасе (Мексика) (409 км)

Пояснения к столбцам:

Ветер - указаны скорость ветра в м/с - средняя за 10 мин, порывы в срок и между сроками (в фигурных скобках) и направление, откуда дует ветер: С - северный, СВ - северо-восточный, В - восточный, ЮВ - юго-восточный, Ю - южный, ЮЗ - юго-западный, З - западный, СЗ - северо-западный.
Видимость - горизонтальная дальность видимости в метрах или километрах. При видимости от 1 до 10 км при отсутствии осадков обычно наблюдается дымка, при ухудшении видимости до 1 км и менее - туман. В сухую погоду видимость может ухудшаться дымом, пылью или мглою.
Явления - указаны атмосферные явления, наблюдавшиеся в срок или в последний час перед сроком; фигурными скобками обозначены явления, наблюдавшиеся между сроками (за 1-3 часа до срока); квадратными скобками обозначены град или гололедные отложения с указанием их диаметра в мм.
Облачность - указаны через наклонную черту общая и нижняя облачность в баллах и высота нижней границы облаков в метрах; квадратными скобками обозначены формы облаков: Ci - перистые, Cs - перисто-слоистые, Cc - перисто-кучевые, Ac - высококучевые, As - высокослоистые, Sc - слоисто-кучевые, Ns - слоисто-дождевые, Cu - кучевые, Cb - кучево-дождевые. Подробнее классификацию облаков см. в Атласе облаков (PDF).
T - Температура воздуха - температура, измеренная на высоте 2 м над землей.
Td - Температура точки росы - температура, при понижении до которой содержащийся в воздухе водяной пар достигнет насыщения.
f - Относительная влажность воздуха - влажноcть воздуха, измеренная на высоте 2 м над землей.
Te - Эффективная температура - температура, которую ощущает одетый по сезону человек в тени. Характеристика душности погоды. При расчете учитывается влияние влажности воздуха и скорости ветра на теплоощущения человека.
Tes - Эффективная температура на солнце - температура, которую ощущает человек, с поправкой на солнечный нагрев. Характеристика знойности погоды. Зависит от высоты солнца над горизонтом, облачности и скорости ветра. Ночью, в пасмурную погоду, а также при ветре 12 м/с и более поправка равна нулю.
P - Атмосферное давление - приведенное к уровню моря атмосферное давление.
Po - Атмосферное давление - измеренное на уровне метеостанции атмосферное давление.
Tmin - Минимальная температура - минимум температуры воздуха на высоте 2 м над землей.
Tmax - Максимальная температура - максимум температуры воздуха на высоте 2 м над землей.
R - Количество осадков - Количество выпавших осадков за период времени, мм. При наведении курсора мыши на число - период времени, за который выпало указанное количество осадков.
R24 - Количество осадков - Количество выпавших осадков за 24 часа, мм.
S - Снежный покров - Высота снежного покрова, см. При наведении курсора мыши на число - состояние снежного покрова и степень покрытия местности в баллах.